Showing default

YAOGAN-39 02C, 57890

Orbit data source: Space-Track

YAOGAN-39 02C, 57890 is a payload satellite owned by PLA GAD (CN) in LEO that was launched on Sun, 17 Sep 2023 UTC via a CHANG ZHENG 2D launch vehicle from the Xichang Space Center, China (XSC). Payload-class satellites include a variety of spacecraft equipped with specific instruments for various scientific and technological missions. These include communications satellites like Starlink; space stations such as the ISS; scientific satellites like the Hubble; Earth observation satellites from companies like Planet Labs, Umbra, and HawkEye 360; GPS; miniature CubeSats for education and research; and military/defense satellites.

Loading next visibility...
Identifier
57890, 2023-145E
Orbit
LEO
Country
Flag of CNCN / PRC
Related business
Manufacturer
DFH
Mission
Operational Defense Sigint
Bus & Motor
Unknown
Mass
~300 kg wet, ~300 kg dry
Launch date (UTC)
2023-09-17 (3 years ago)
Launch vehicle
CHANG ZHENG 2D
Launch site
Xichang Space Center, China (XSC)
Object type
Payload
Rocket body
Debris
Shape & HBR
Box + 2 Pan, 2.5 m
Radar Cross Section
11.063 m², Large (>1 m²)

Expand to show TLE details & history
Last TLE update: 23 hours ago

TLE from 23 hours ago
0 YAOGAN-39 02C
1 57890U 23145E   26172.49654380  .00002783  00000-0  13589-3 0  9990
2 57890  34.9923 197.4476 0005110  98.9023 261.2269 15.17860702153517
Epoch: 2026-06-21T11:55Z
TLE epoch observation values (Epoch: 2026-06-21T11:55:01.384Z)
Latitude
0.00001°
Longitude
108.99588°
Altitude
511.755 km
Speed
7.61 km/s
True Right ascension
13h 09m 47s
True Declination
0° 00' 00"
Sunlit
Object was in daylight at epoch
Visualization orbit readout
Latitude
Unknown
Longitude
Unknown
Altitude
Unknown
Speed
Unknown
Apparent Right ascension
Unknown
Apparent Declination
Unknown
Sunlit
N/A
Visualization observer readout
Local Sidereal Time
21:34:00
Azimuth
Unknown
Elevation
Unknown
Doppler factor
Unknown
Orbital elements
Apogee altitude
519.074 km
Perigee altitude
512.029 km
Semi-major axis
6,893.688 km
Eccentricity
0.00051
Inclination
34.9923°
RAAN
197.4476°
Arg. of periapsis
98.9023°
True anomaly
261.16903°
Mean anomaly
261.2269°
Eccentric anomaly
261.19797°
Mean motion
3.79198 °/min
Orbital period
94.94 mins
BSTAR
0.00013589
Loading maneuver chart data...
Computing Atmospheric mass density...
Loading historical data...
Loading historical data...
Loading historical data...
Loading historical data...
Loading historical data...
Loading historical data...
Loading historical data...
Other satellites on launch #145 in the year 2023 (2023-09-17 UTC)

Documentation

Showing up to 5 results
|